EW6452 Weather Reports


time (UTC)temp
F
wind
direction
speed
knots
gust
knots
rain 1hr
in
rain 24hr
in
rain mn
in
humidity
%
barometer
mb
20260509212553 89 0 0.9 3.5 0.00 0.01 0.01 55 1009.0
20260509212052 89 144 0.9 3.5 0.00 0.01 0.01 54 1008.9
20260509211603 88 128 0.9 5.2 0.00 0.01 0.01 56 1009.1
20260509211053 88 128 0.9 5.2 0.00 0.01 0.01 54 1009.2
20260509210553 88 86 0.9 3.5 0.00 0.01 0.01 54 1009.3
20260509210101 88 101 1.7 3.5 0.00 0.01 0.01 55 1009.4
20260509205552 88 155 0.9 3.5 0.00 0.01 0.01 56 1009.4
20260509205052 88 202 0.0 3.5 0.00 0.01 0.01 54 1009.5
20260509204554 88 202 0.0 1.7 0.00 0.01 0.01 56 1009.6
20260509204052 87 180 0.0 3.5 0.00 0.01 0.01 58 1009.6
20260509203552 86 180 0.0 5.2 0.00 0.01 0.01 59 1009.7
20260509203059 86 180 0.9 5.2 0.00 0.01 0.01 61 1009.7
20260509202555 85 199 1.7 5.2 0.00 0.01 0.01 59 1009.9
20260509202052 84 182 2.6 5.2 0.00 0.01 0.01 59 1009.9
20260509201555 83 185 2.6 7.0 0.00 0.01 0.01 58 1010.2
20260509201053 81 123 2.6 9.6 0.00 0.01 0.01 58 1010.3
20260509200551 80 188 2.6 11.3 0.00 0.01 0.01 56 1010.7
20260509195553 88 146 1.7 5.2 0.00 0.01 0.01 55 1010.8
20260509195052 89 34 0.9 3.5 0.00 0.01 0.01 56 1010.6
20260509194559 89 0 0.9 5.2 0.00 0.01 0.01 56 1010.7
20260509194052 88 294 0.0 5.2 0.00 0.01 0.01 59 1010.5
20260509193552 88 14 0.9 4.3 0.00 0.01 0.01 53 1010.6
20260509193100 88 74 0.9 7.0 0.00 0.01 0.01 52 1010.6
20260509192553 87 27 0.9 7.0 0.00 0.01 0.01 60 1010.4
20260509192052 86 307 0.9 5.2 0.00 0.01 0.01 58 1010.4
20260509191557 86 350 0.9 5.2 0.00 0.01 0.01 63 1010.4
20260509191056 87 315 1.7 4.3 0.00 0.01 0.01 61 1010.4
20260509190554 86 20 0.9 4.3 0.00 0.01 0.01 64 1010.5
20260509190058 85 5 0.9 4.3 0.00 0.01 0.01 62 1010.6
20260509185553 85 32 0.9 4.3 0.00 0.01 0.01 67 1010.7
20260509185051 85 324 0.9 9.6 0.00 0.01 0.01 68 1010.9
20260509184556 84 51 0.9 9.6 0.00 0.01 0.01 67 1010.9
20260509184052 84 17 3.5 9.6 0.00 0.01 0.01 70 1010.9
20260509183554 83 15 2.6 7.8 0.00 0.01 0.01 70 1011.1
20260509183136 83 30 1.7 5.2 0.00 0.01 0.01 71 1011.1
20260509182552 83 5 0.9 5.2 0.00 0.01 0.01 70 1011.2
20260509182052 83 42 1.7 5.2 0.00 0.01 0.01 70 1011.2
20260509181612 85 5 0.0 3.5 0.00 0.01 0.01 68 1011.2
20260509181052 86 0 0.0 3.5 0.00 0.01 0.01 65 1011.2
20260509180552 86 360 0.0 1.7 0.00 0.01 0.01 72 1011.4
20260509180100 84 360 0.0 1.7 0.00 0.01 0.01 71 1011.4
20260509175552 84 360 0.0 2.6 0.00 0.01 0.01 74 1011.3
20260509175052 85 0 0.0 2.6 0.00 0.01 0.01 73 1011.4
20260509174556 84 334 0.0 2.6 0.00 0.01 0.01 70 1011.3
20260509174052 84 97 0.0 1.7 0.00 0.01 0.01 71 1011.5
20260509173556 84 0 0.0 1.7 0.00 0.01 0.01 75 1011.5
20260509173104 85 317 0.0 1.7 0.00 0.01 0.01 77 1011.5
20260509172553 82 338 0.0 1.7 0.00 0.01 0.01 81 1011.5
20260509172051 81 227 0.0 1.7 0.00 0.01 0.01 77 1011.6
20260509171559 81 0 0.0 1.7 0.00 0.01 0.01 78 1011.7
20260509171052 81 9 0.0 1.7 0.00 0.01 0.01 77 1011.8
20260509170552 82 0 0.0 4.3 0.00 0.01 0.01 77 1011.9
20260509170058 82 44 0.0 4.3 0.00 0.01 0.01 77 1011.9
20260509165552 82 170 1.7 4.3 0.00 0.01 0.01 73 1012.0
20260509165052 83 176 0.9 2.6 0.00 0.01 0.01 72 1012.0
20260509164602 83 150 0.0 1.7 0.00 0.01 0.01 74 1011.8
20260509164052 83 150 0.0 3.5 0.00 0.01 0.01 75 1011.7
20260509163552 83 212 0.9 4.3 0.00 0.01 0.01 77 1011.8
20260509163101 82 244 0.9 4.3 0.00 0.01 0.01 76 1012.0
20260509162552 83 0 0.0 2.6 0.00 0.01 0.01 78 1012.1
20260509162051 82 218 0.0 7.8 0.00 0.01 0.01 77 1012.0
20260509161554 82 225 0.9 7.8 0.00 0.01 0.01 81 1012.1
20260509161051 81 209 2.6 6.1 0.00 0.01 0.01 80 1011.9
20260509160553 81 254 1.7 6.1 0.00 0.01 0.01 82 1011.9
20260509160058 80 227 0.9 4.3 0.00 0.01 0.01 82 1012.0
20260509155552 80 191 0.9 7.8 0.00 0.01 0.01 81 1012.0
20260509155052 80 229 0.9 7.8 0.00 0.01 0.01 81 1012.0
20260509154557 79 242 3.5 11.3 0.00 0.01 0.01 82 1011.8
20260509154052 79 171 3.5 11.3 0.00 0.01 0.01 83 1011.6
20260509153552 78 214 5.2 10.4 0.00 0.01 0.01 84 1011.5
20260509153053 78 162 6.1 10.4 0.00 0.01 0.01 83 1011.2
20260509152552 79 198 4.3 7.8 0.00 0.01 0.01 83 1011.2
20260509152052 79 211 2.6 7.8 0.00 0.01 0.01 83 1011.3
20260509151555 79 132 3.5 8.7 0.00 0.01 0.01 84 1011.4
20260509151053 79 173 3.5 8.7 0.00 0.01 0.01 83 1011.2
20260509150552 78 178 4.3 9.6 0.00 0.01 0.01 83 1011.1
20260509150051 79 152 5.2 9.6 0.00 0.01 0.01 82 1011.1
20260509145552 79 188 3.5 7.8 0.00 0.01 0.01 83 1011.1
20260509145052 79 207 3.5 7.8 0.00 0.01 0.01 83 1011.2
20260509144558 79 168 3.5 8.7 0.00 0.01 0.01 82 1011.0
20260509144052 79 201 4.3 8.7 0.00 0.01 0.01 82 1011.0
20260509143553 79 190 3.5 7.0 0.00 0.01 0.01 83 1010.9
20260509143058 79 196 3.5 7.0 0.00 0.01 0.01 84 1010.7
20260509142552 78 205 3.5 7.0 0.00 0.01 0.01 85 1010.7
20260509142052 78 178 1.7 5.2 0.00 0.01 0.01 86 1010.6
20260509141609 77 179 2.6 6.1 0.00 0.01 0.01 86 1010.6
20260509141052 77 183 0.9 6.1 0.00 0.01 0.01 87 1010.6
20260509140552 76 229 2.6 6.1 0.00 0.01 0.01 89 1010.6
20260509140105 76 207 1.7 5.2 0.00 0.01 0.01 91 1010.7
20260509135553 75 184 2.6 5.2 0.00 0.01 0.01 92 1010.6
20260509135051 75 196 2.6 5.2 0.00 0.01 0.01 93 1010.4
20260509134603 74 229 2.6 6.1 0.00 0.01 0.01 94 1010.4
20260509134052 74 360 1.7 6.1 0.00 0.01 0.01 94 1010.5
20260509133553 73 220 2.6 6.1 0.00 0.01 0.01 95 1010.6
20260509133110 73 227 2.6 7.0 0.00 0.01 0.01 95 1010.7
20260509132553 72 184 2.6 7.8 0.00 0.01 0.01 95 1010.8
20260509132057 72 159 3.5 7.8 0.00 0.01 0.01 95 1010.7
20260509131604 72 197 3.5 7.0 0.00 0.01 0.01 95 1010.5
20260509131052 72 186 3.5 7.0 0.00 0.01 0.01 95 1010.8
20260509130554 72 203 2.6 5.2 0.00 0.01 0.01 95 1010.9
20260509130059 72 187 2.6 5.2 0.00 0.01 0.01 95 1010.8
20260509125552 72 215 1.7 3.5 0.00 0.01 0.01 95 1010.9
20260509125053 71 171 0.9 1.7 0.00 0.01 0.01 95 1010.9
20260509124607 71 123 0.0 1.7 0.00 0.01 0.01 95 1011.0
20260509124052 71 115 0.0 1.7 0.00 0.01 0.01 95 1010.9
20260509123554 71 114 0.0 1.7 0.00 0.01 0.01 95 1011.0
20260509123111 71 0 0.0 1.7 0.00 0.01 0.01 95 1011.0
20260509122553 71 0 0.0 1.7 0.00 0.01 0.01 95 1011.0
20260509122053 71 0 0.0 1.7 0.00 0.01 0.01 95 1010.9
20260509121555 71 0 0.0 1.7 0.00 0.01 0.01 95 1010.9
20260509121055 71 0 0.0 0.9 0.00 0.01 0.01 95 1010.9
20260509120553 70 0 0.0 0.0 0.00 0.01 0.01 95 1011.1
20260509120056 71 0 0.0 0.0 0.00 0.01 0.01 95 1011.0
20260509115552 71 0 0.0 0.9 0.00 0.01 0.01 95 1011.2
20260509115052 71 0 0.0 0.9 0.00 0.01 0.01 95 1011.2
20260509114557 71 0 0.0 0.0 0.00 0.01 0.01 95 1011.4
20260509114053 71 0 0.0 0.0 0.00 0.01 0.01 95 1011.5
20260509113553 71 0 0.0 0.0 0.00 0.01 0.01 95 1011.6
20260509113058 71 0 0.0 1.7 0.01 0.01 0.01 95 1011.6
20260509112555 71 0 0.0 1.7 0.01 0.01 0.01 95 1011.8
20260509112053 71 0 0.0 1.7 0.01 0.01 0.01 95 1012.1
20260509111559 71 0 0.0 1.7 0.01 0.01 0.01 95 1012.4
20260509111052 71 0 0.0 1.7 0.01 0.01 0.01 95 1012.5
20260509110553 71 0 0.0 1.7 0.01 0.01 0.01 95 1012.5
20260509110054 71 0 0.0 1.7 0.01 0.01 0.01 95 1012.4
20260509105554 71 0 0.0 1.7 0.01 0.01 0.01 95 1012.5
20260509105053 71 0 0.0 0.0 0.01 0.01 0.01 95 1012.5
20260509104556 71 0 0.0 0.0 0.01 0.01 0.01 94 1012.4
20260509104052 71 0 0.0 1.7 0.01 0.01 0.01 94 1012.2
20260509103551 71 0 0.0 1.7 0.01 0.01 0.01 94 1012.4
20260509103102 71 0 0.0 1.7 0.00 0.00 0.00 94 1012.6
20260509102553 71 0 0.0 1.7 0.00 0.00 0.00 94 1012.4
20260509102053 71 0 0.0 1.7 0.00 0.00 0.00 94 1012.4
20260509101559 71 172 0.0 1.7 0.00 0.00 0.00 94 1012.3
20260509101052 71 0 0.0 1.7 0.00 0.00 0.00 94 1012.2
20260509100552 71 0 0.0 1.7 0.00 0.00 0.00 94 1012.1
20260509100056 71 0 0.0 1.7 0.00 0.00 0.00 94 1011.8
20260509095553 71 0 0.0 1.7 0.00 0.00 0.00 94 1011.8
20260509095053 71 0 0.0 1.7 0.00 0.00 0.00 94 1011.7
20260509094555 71 0 0.0 1.7 0.00 0.00 0.00 94 1011.4
20260509094052 71 0 0.0 0.0 0.00 0.00 0.00 94 1011.3
20260509093553 71 0 0.0 1.7 0.00 0.00 0.00 94 1011.1
20260509093059 71 0 0.0 1.7 0.00 0.00 0.00 94 1010.8
20260509092552 71 0 0.0 1.7 0.00 0.00 0.00 94 1010.8
20260509092053 71 0 0.0 1.7 0.00 0.00 0.00 94 1010.8
20260509091555 71 0 0.0 0.9 0.00 0.00 0.00 94 1010.7
20260509091054 71 0 0.0 1.7 0.00 0.00 0.00 94 1010.6
20260509090554 71 0 0.0 1.7 0.00 0.00 0.00 94 1010.6
20260509090056 71 0 0.0 1.7 0.00 0.00 0.00 94 1010.7
20260509085552 71 0 0.0 1.7 0.00 0.00 0.00 94 1010.7
20260509085052 71 172 0.0 1.7 0.00 0.00 0.00 94 1010.8
20260509084557 71 0 0.0 1.7 0.00 0.00 0.00 94 1010.8
20260509084053 71 172 0.0 1.7 0.00 0.00 0.00 94 1011.2
20260509083553 71 0 0.0 1.7 0.00 0.00 0.00 94 1011.3
20260509083105 71 0 0.0 1.7 0.00 0.00 0.00 94 1011.4
20260509082552 71 0 0.0 0.0 0.00 0.00 0.00 94 1011.5
20260509082052 71 0 0.0 0.0 0.00 0.00 0.00 94 1011.3
20260509081555 71 0 0.0 0.9 0.00 0.00 0.00 94 1011.2
20260509081052 71 0 0.0 1.7 0.00 0.00 0.00 94 1011.0
20260509080552 71 0 0.0 1.7 0.00 0.00 0.00 93 1011.1
20260509080100 71 172 0.0 1.7 0.00 0.00 0.00 93 1011.3
20260509075553 71 0 0.0 1.7 0.00 0.00 0.00 93 1011.5
20260509075053 71 172 0.0 1.7 0.00 0.00 0.00 93 1011.4
20260509074556 71 0 0.0 1.7 0.00 0.00 0.00 93 1011.4
20260509074054 71 172 0.0 1.7 0.00 0.00 0.00 93 1011.5
20260509073552 71 0 0.0 1.7 0.00 0.00 0.00 93 1011.6
20260509073106 71 0 0.0 1.7 0.00 0.00 0.00 93 1011.7
20260509072555 71 0 0.0 1.7 0.00 0.00 0.00 93 1011.6
20260509072052 72 0 0.0 1.7 0.00 0.00 0.00 93 1011.6
20260509071557 72 0 0.0 1.7 0.00 0.00 0.00 93 1011.8
20260509071052 72 0 0.0 1.7 0.00 0.00 0.00 92 1011.8
20260509070552 72 0 0.0 1.7 0.00 0.00 0.00 92 1011.9
20260509070057 72 0 0.0 1.7 0.00 0.00 0.00 92 1011.9
20260509065552 72 0 0.0 1.7 0.00 0.00 0.00 92 1011.6
20260509065053 72 0 0.0 1.7 0.00 0.00 0.00 92 1011.5
20260509064607 72 172 0.0 1.7 0.00 0.00 0.00 92 1011.6
20260509064056 72 172 0.0 2.6 0.00 0.00 0.00 92 1011.5
20260509063552 72 172 0.0 2.6 0.00 0.00 0.00 91 1011.8
20260509063057 72 172 0.9 2.6 0.00 0.00 0.00 91 1011.7
20260509062553 72 0 0.9 2.6 0.00 0.00 0.00 91 1011.7
20260509062052 72 202 0.9 3.5 0.00 0.00 0.00 91 1011.4
20260509061554 72 202 0.9 3.5 0.00 0.00 0.00 91 1011.4
20260509061052 72 195 0.0 3.5 0.00 0.00 0.00 91 1011.3
20260509060552 72 196 0.9 3.5 0.00 0.00 0.00 90 1011.3
20260509055553 73 0 1.7 7.8 0.00 0.00 0.00 90 1011.4
20260509055056 73 200 2.6 7.8 0.00 0.00 0.00 90 1011.3
20260509054555 73 199 2.6 7.8 0.00 0.00 0.00 89 1011.3
20260509054054 73 111 1.7 6.1 0.00 0.00 0.00 89 1010.9
20260509053552 73 184 2.6 5.2 0.00 0.00 0.00 89 1010.6
20260509053104 73 123 0.9 4.3 0.00 0.00 0.00 89 1010.6
20260509052552 73 186 0.9 4.3 0.00 0.00 0.00 89 1010.2
20260509052052 73 186 1.7 4.3 0.00 0.00 0.00 89 1010.3
20260509051602 73 186 0.9 3.5 0.00 0.00 0.00 89 1010.3
20260509051053 73 124 0.9 3.5 0.00 0.00 0.00 89 1010.2
20260509050555 73 0 0.9 3.5 0.00 0.00 0.00 89 1010.0
20260509050105 73 192 0.9 2.6 0.00 0.00 0.00 89 1010.0
20260509045552 73 192 0.9 3.5 0.00 0.00 0.00 89 1010.1
20260509045052 73 192 0.9 3.5 0.00 0.00 0.00 89 1010.4
20260509044557 73 192 0.9 2.6 0.00 0.00 0.00 89 1010.3
20260509044053 73 360 0.9 4.3 0.00 0.00 0.00 89 1010.5
20260509043553 73 0 0.9 4.3 0.00 0.00 0.00 89 1010.6
20260509043055 73 360 0.9 4.3 0.00 0.00 0.00 89 1010.5
20260509042553 73 0 0.0 1.7 0.00 0.00 0.00 89 1010.7
20260509042052 73 0 0.0 2.6 0.00 0.00 0.00 89 1010.6
20260509041555 73 148 0.9 2.6 0.00 0.00 0.00 89 1010.6
20260509041053 73 148 0.0 1.7 0.00 0.00 0.00 89 1010.8
20260509040555 72 149 0.0 1.7 0.00 0.00 0.00 89 1010.8
20260509040100 72 0 0.0 1.7 0.00 0.00 0.00 89 1010.8
20260509035553 72 0 0.0 0.9 0.00 0.00 0.00 89 1010.8
20260509035057 72 0 0.0 0.0 0.00 0.00 0.00 89 1010.8
20260509034555 72 0 0.0 0.0 0.00 0.00 0.00 90 1010.7
20260509034052 72 0 0.0 0.0 0.00 0.00 0.00 90 1010.6
20260509033552 71 0 0.0 0.9 0.00 0.00 0.00 90 1010.6
20260509033101 71 0 0.0 1.7 0.00 0.00 0.00 90 1010.4
20260509032552 71 0 0.0 1.7 0.00 0.00 0.00 90 1010.2
20260509032053 71 0 0.0 1.7 0.00 0.00 0.00 89 1010.2
20260509031556 72 0 0.0 1.7 0.00 0.00 0.00 89 1010.3
20260509031053 72 0 0.0 2.6 0.00 0.00 0.00 89 1010.2
20260509030555 72 360 0.0 2.6 0.00 0.00 0.00 88 1010.1
20260509030054 72 360 0.0 1.7 0.00 0.00 0.00 88 1010.0
20260509025552 72 360 0.9 1.7 0.00 0.00 0.00 88 1010.1
20260509025058 72 0 0.0 1.7 0.00 0.00 0.00 88 1010.2
20260509024555 73 360 0.0 1.7 0.00 0.00 0.00 87 1010.2
20260509024053 73 0 0.0 1.7 0.00 0.00 0.00 87 1010.1
20260509023552 73 0 0.0 1.7 0.00 0.00 0.00 87 1010.1
20260509023104 73 0 0.0 1.7 0.00 0.00 0.00 87 1010.0
20260509022556 73 0 0.0 1.7 0.00 0.00 0.00 87 1009.9
20260509022053 73 0 0.0 1.7 0.00 0.00 0.00 86 1009.9
20260509021555 73 0 0.0 1.7 0.00 0.00 0.00 86 1009.8
20260509021055 73 0 0.0 1.7 0.00 0.00 0.00 85 1009.7
20260509020552 74 0 0.0 1.7 0.00 0.00 0.00 85 1009.7
20260509020055 74 0 0.9 1.7 0.00 0.00 0.00 85 1009.6
20260509015552 74 148 0.9 3.5 0.00 0.00 0.00 84 1009.5
20260509015053 75 0 0.0 3.5 0.00 0.00 0.00 84 1009.6
20260509014552 75 117 0.0 3.5 0.00 0.00 0.00 84 1009.6
20260509014052 75 199 0.9 3.5 0.00 0.00 0.00 83 1009.5
20260509013553 75 124 0.0 3.5 0.00 0.00 0.00 83 1009.5
20260509013109 75 155 0.0 2.6 0.00 0.00 0.00 83 1009.3
20260509012552 76 177 0.9 3.5 0.00 0.00 0.00 82 1009.4
20260509012052 76 122 0.9 3.5 0.00 0.00 0.00 82 1009.5
20260509011556 76 119 0.9 4.3 0.00 0.00 0.00 82 1009.4
20260509011053 76 138 1.7 4.3 0.00 0.00 0.00 81 1009.5
20260509010556 76 138 0.9 3.5 0.00 0.00 0.00 81 1009.5
20260509005553 76 122 0.9 3.5 0.00 0.00 0.00 80 1009.4
20260509005053 76 130 0.9 3.5 0.00 0.00 0.00 81 1009.5
20260509004611 76 0 0.0 2.6 0.00 0.00 0.00 80 1009.3
20260509004052 77 117 0.0 3.5 0.00 0.00 0.00 80 1009.3
20260509003552 77 117 0.9 3.5 0.00 0.00 0.00 79 1009.3
20260509003055 77 107 0.0 5.2 0.00 0.00 0.00 79 1009.3
20260509002552 77 130 0.9 5.2 0.00 0.00 0.00 79 1009.4
20260509002052 77 181 0.9 4.3 0.00 0.00 0.00 79 1009.4
20260509001553 77 123 0.9 4.3 0.00 0.00 0.00 79 1009.5
20260509001052 77 126 0.9 3.5 0.00 0.00 0.00 78 1009.5
20260509000555 77 130 0.9 2.6 0.00 0.00 0.00 78 1009.6
20260509000109 77 0 0.9 4.3 0.00 0.00 0.00 78 1009.5
20260508235553 77 117 0.9 4.3 0.00 0.00 0.00 78 1009.5
20260508235053 77 128 0.9 3.5 0.00 0.00 0.00 77 1009.4
20260508234555 78 163 0.0 3.5 0.00 0.00 0.00 77 1009.4
20260508234052 78 0 0.0 3.5 0.00 0.00 0.00 77 1009.5
20260508233553 78 113 0.9 3.5 0.00 0.00 0.00 77 1009.4
20260508233125 78 118 0.0 5.2 0.00 0.00 0.00 78 1009.4
20260508232552 77 78 0.9 5.2 0.00 0.00 0.00 77 1009.3
20260508232052 77 207 0.9 5.2 0.00 0.00 0.00 77 1009.3
20260508231559 78 125 0.9 3.5 0.00 0.00 0.00 77 1009.4
20260508231053 78 119 0.9 2.6 0.00 0.00 0.00 77 1009.4
20260508230552 77 0 0.0 4.3 0.00 0.00 0.00 78 1009.4
20260508230059 77 0 0.9 4.3 0.00 0.00 0.00 77 1009.3
20260508225552 77 175 0.9 4.3 0.00 0.00 0.00 77 1009.3
20260508225049 78 130 0.9 5.2 0.00 0.00 0.00 77 1009.3
20260508224615 78 165 0.9 7.0 0.00 0.00 0.00 76 1009.4
20260508224053 78 111 1.7 7.0 0.00 0.00 0.00 76 1009.4
20260508223552 79 83 0.9 4.3 0.00 0.00 0.00 76 1009.3
20260508223054 78 89 1.7 4.3 0.00 0.00 0.00 76 1009.3
20260508222552 78 135 1.7 6.1 0.00 0.00 0.00 76 1009.3
20260508222052 78 0 1.7 6.1 0.00 0.00 0.00 76 1009.4
20260508221555 79 161 0.9 3.5 0.00 0.00 0.00 74 1009.5
20260508221049 79 142 0.9 6.1 0.00 0.00 0.00 75 1009.5
20260508220555 79 0 1.7 6.1 0.00 0.00 0.00 75 1009.5
20260508220050 79 86 1.7 6.1 0.00 0.00 0.00 74 1009.5
20260508215552 79 51 1.7 3.5 0.00 0.00 0.00 74 1009.4
20260508215052 79 113 1.7 4.3 0.00 0.00 0.00 74 1009.6
20260508214555 80 128 0.9 5.2 0.00 0.00 0.00 72 1009.5
20260508214052 80 95 0.9 6.1 0.00 0.00 0.00 72 1009.6
20260508213552 80 200 0.9 6.1 0.00 0.00 0.00 73 1009.8
20260508213050 80 123 1.7 6.1 0.00 0.00 0.00 71 1009.7